When you browse on this site, cookies collect data to enhance your experience and personalize the content and advertising you see.
Visit our Privacy Policy to learn more. By continuing to use the site, you agree to this use of cookies and data.
  • In Germany
  • List of Countries
  • For 7 days
  • Water Temperature
  • Weather Map
  • Weather Widgets
  • user-avatar
    Login

    Hourly Weather Canberra

    Today, 10 December, Tuesday

    Time Temperature Precipitation Wind Pressure Humidity
    00:00 +19°C° 0 mm 0 mps 709 mmHg 35%
    01:00 +18°C° 0 mm 0 mps 708 mmHg 37%
    02:00 +17°C° 0 mm 0 mps 708 mmHg 37%
    03:00 +17°C° 0 mm 0 mps 707 mmHg 38%
    04:00 +16°C° 0 mm 0 mps 707 mmHg 38%
    05:00 +21°C° 0 mm 1 mps 707 mmHg 34%
    06:00 +24°C° 0 mm 1 mps 708 mmHg 29%
    07:00 +27°C° 0 mm 1 mps 709 mmHg 25%
    08:00 +30°C° 0 mm 2 mps 709 mmHg 20%
    09:00 +34°C° 0 mm 4 mps 709 mmHg 16%
    10:00 +37°C° 0 mm 5 mps 710 mmHg 11%
    11:00 +39°C° 0 mm 6 mps 709 mmHg 10%
    12:00 +40°C° 0 mm 6 mps 709 mmHg 8%
    13:00 +40°C° 0 mm 7 mps 709 mmHg 7%
    14:00 +40°C° 0 mm 7 mps 708 mmHg 9%
    15:00 +39°C° 0 mm 6 mps 708 mmHg 11%
    16:00 +39°C° 0 mm 6 mps 709 mmHg 13%
    17:00 +33°C° 0 mm 5 mps 709 mmHg 25%
    18:00 +28°C° 0 mm 4 mps 709 mmHg 37%
    19:00 +23°C° 0 mm 4 mps 709 mmHg 48%
    20:00 +20°C° 0 mm 3 mps 709 mmHg 62%
    21:00 +17°C° 0 mm 3 mps 709 mmHg 76%
    22:00 +14°C° 0 mm 2 mps 709 mmHg 89%
    23:00 +13°C° 0 mm 2 mps 709 mmHg 91%

    Tomorrow, 11 December, Wednesday

    Time Temperature Precipitation Wind Pressure Humidity
    00:00 +13°C° 0 mm 2 mps 709 mmHg 93%
    01:00 +12°C° 0 mm 1 mps 709 mmHg 94%
    02:00 +12°C° 0 mm 1 mps 708 mmHg 95%
    03:00 +11°C° 0 mm 1 mps 708 mmHg 95%
    04:00 +11°C° 0 mm 1 mps 707 mmHg 95%
    05:00 +13°C° 0 mm 1 mps 708 mmHg 84%
    06:00 +15°C° 0 mm 1 mps 708 mmHg 73%
    07:00 +17°C° 0 mm 2 mps 709 mmHg 62%
    08:00 +20°C° 0 mm 2 mps 709 mmHg 51%
    09:00 +24°C° 0 mm 2 mps 709 mmHg 39%
    10:00 +27°C° 0 mm 2 mps 709 mmHg 28%
    11:00 +29°C° 0 mm 3 mps 708 mmHg 24%
    12:00 +31°C° 0 mm 3 mps 708 mmHg 19%
    13:00 +34°C° 0 mm 4 mps 708 mmHg 15%
    14:00 +34°C° 0 mm 4 mps 707 mmHg 14%
    15:00 +34°C° 0 mm 4 mps 707 mmHg 14%
    16:00 +34°C° 0 mm 4 mps 707 mmHg 14%
    17:00 +29°C° 0 mm 4 mps 707 mmHg 28%
    18:00 +23°C° 0 mm 4 mps 707 mmHg 42%
    19:00 +19°C° 0 mm 3 mps 707 mmHg 57%
    20:00 +17°C° 0 mm 3 mps 707 mmHg 68%
    21:00 +14°C° 0 mm 3 mps 707 mmHg 79%
    22:00 +12°C° 0 mm 3 mps 708 mmHg 90%
    23:00 +13°C° 0 mm 2 mps 707 mmHg 89%

    Day after tomorrow, 12 December, Thursday

    Time Temperature Precipitation Wind Pressure Humidity
    00:00 +13°C° 0 mm 2 mps 707 mmHg 87%
    01:00 +13°C° 0 mm 1 mps 707 mmHg 85%
    02:00 +12°C° 0 mm 1 mps 707 mmHg 88%
    03:00 +11°C° 0 mm 1 mps 706 mmHg 91%
    04:00 +11°C° 0 mm 1 mps 706 mmHg 94%
    05:00 +13°C° 0 mm 1 mps 707 mmHg 82%
    06:00 +14°C° 0 mm 1 mps 707 mmHg 71%
    07:00 +16°C° 0 mm 1 mps 708 mmHg 60%
    08:00 +19°C° 0 mm 2 mps 708 mmHg 51%
    09:00 +23°C° 0 mm 2 mps 708 mmHg 43%
    10:00 +25°C° 0 mm 2 mps 708 mmHg 34%
    11:00 +27°C° 0 mm 2 mps 707 mmHg 30%
    12:00 +29°C° 0 mm 2 mps 707 mmHg 26%
    13:00 +31°C° 0 mm 2 mps 707 mmHg 21%
    14:00 +30°C° 0 mm 2 mps 707 mmHg 23%
    15:00 +30°C° 0 mm 3 mps 706 mmHg 25%
    16:00 +29°C° 0 mm 4 mps 706 mmHg 27%
    17:00 +25°C° 0 mm 4 mps 706 mmHg 42%
    18:00 +20°C° 0 mm 4 mps 706 mmHg 56%
    19:00 +14°C° 0 mm 4 mps 707 mmHg 71%
    20:00 +14°C° 0 mm 4 mps 707 mmHg 74%
    21:00 +13°C° 0 mm 3 mps 708 mmHg 77%
    22:00 +14°C° 0 mm 2 mps 708 mmHg 81%
    23:00 +14°C° 0 mm 2 mps 708 mmHg 81%

    13 December, Friday

    Time Temperature Precipitation Wind Pressure Humidity
    00:00 +14°C° 0 mm 2 mps 708 mmHg 81%
    01:00 +14°C° 0 mm 2 mps 708 mmHg 81%
    02:00 +14°C° 0 mm 2 mps 708 mmHg 81%
    03:00 +14°C° 0 mm 2 mps 708 mmHg 82%
    04:00 +13°C° 0 mm 2 mps 707 mmHg 83%
    05:00 +14°C° 0 mm 2 mps 707 mmHg 80%
    06:00 +15°C° 0 mm 2 mps 708 mmHg 77%
    07:00 +15°C° 0 mm 2 mps 708 mmHg 74%
    08:00 +18°C° 0 mm 2 mps 708 mmHg 62%
    09:00 +22°C° 0 mm 1 mps 708 mmHg 50%
    10:00 +25°C° 0 mm 1 mps 708 mmHg 38%
    11:00 +26°C° 0 mm 1 mps 708 mmHg 33%
    12:00 +28°C° 0 mm 2 mps 707 mmHg 28%
    13:00 +29°C° 0 mm 2 mps 707 mmHg 23%
    14:00 +29°C° 0 mm 2 mps 707 mmHg 26%
    15:00 +28°C° 0 mm 3 mps 706 mmHg 28%
    16:00 +27°C° 0 mm 4 mps 706 mmHg 30%
    17:00 +23°C° 0 mm 4 mps 706 mmHg 44%
    18:00 +20°C° 0 mm 4 mps 706 mmHg 59%
    19:00 +17°C° 0 mm 4 mps 706 mmHg 74%
    20:00 +16°C° 0 mm 3 mps 706 mmHg 78%
    21:00 +14°C° 0 mm 3 mps 707 mmHg 82%
    22:00 +14°C° 0 mm 2 mps 707 mmHg 86%
    23:00 +14°C° 0 mm 2 mps 707 mmHg 86%

    14 December, Saturday

    Time Temperature Precipitation Wind Pressure Humidity
    00:00 +14°C° 0 mm 1 mps 707 mmHg 86%
    01:00 +14°C° 0 mm 1 mps 707 mmHg 86%
    02:00 +14°C° 0 mm 1 mps 706 mmHg 88%
    03:00 +13°C° 0 mm 1 mps 706 mmHg 90%
    04:00 +13°C° 0 mm 1 mps 706 mmHg 92%
    05:00 +13°C° 0 mm 0 mps 706 mmHg 84%
    06:00 +15°C° 0 mm 0 mps 707 mmHg 77%
    07:00 +16°C° 0 mm 0 mps 707 mmHg 69%
    08:00 +21°C° 0 mm 1 mps 707 mmHg 57%
    09:00 +24°C° 0 mm 1 mps 707 mmHg 45%
    10:00 +27°C° 0 mm 2 mps 707 mmHg 32%
    11:00 +28°C° 0 mm 2 mps 707 mmHg 29%
    12:00 +29°C° 0 mm 3 mps 706 mmHg 27%
    13:00 +30°C° 0 mm 4 mps 706 mmHg 24%
    14:00 +30°C° 0 mm 5 mps 705 mmHg 24%
    15:00 +30°C° 0 mm 5 mps 705 mmHg 25%
    16:00 +29°C° 0 mm 5 mps 705 mmHg 26%
    17:00 +27°C° 0 mm 4 mps 705 mmHg 37%
    18:00 +24°C° 0 mm 3 mps 705 mmHg 48%
    19:00 +20°C° 0 mm 2 mps 706 mmHg 59%
    20:00 +19°C° 0 mm 2 mps 706 mmHg 69%
    21:00 +17°C° 0 mm 2 mps 706 mmHg 79%
    22:00 +15°C° 0 mm 2 mps 706 mmHg 89%
    23:00 +14°C° 0 mm 2 mps 706 mmHg 91%

    15 December, Sunday

    Time Temperature Precipitation Wind Pressure Humidity
    00:00 +14°C° 0 mm 1 mps 706 mmHg 93%
    01:00 +13°C° 0 mm 1 mps 705 mmHg 95%
    02:00 +13°C° 0 mm 1 mps 705 mmHg 95%
    03:00 +12°C° 0 mm 0 mps 705 mmHg 94%
    04:00 +12°C° 0 mm 0 mps 705 mmHg 94%
    05:00 +13°C° 0 mm 0 mps 705 mmHg 87%
    06:00 +15°C° 0 mm 0 mps 706 mmHg 80%
    07:00 +16°C° 0 mm 0 mps 706 mmHg 72%
    08:00 +21°C° 0 mm 1 mps 706 mmHg 57%
    09:00 +24°C° 0 mm 2 mps 707 mmHg 41%
    10:00 +27°C° 0 mm 3 mps 707 mmHg 25%
    11:00 +29°C° 0 mm 4 mps 707 mmHg 22%
    12:00 +30°C° 0 mm 5 mps 706 mmHg 19%
    13:00 +32°C° 0 mm 6 mps 706 mmHg 15%
    14:00 +32°C° 0 mm 5 mps 706 mmHg 16%
    15:00 +32°C° 0 mm 5 mps 706 mmHg 16%
    16:00 +32°C° 0 mm 5 mps 706 mmHg 17%
    17:00 +28°C° 0 mm 4 mps 706 mmHg 28%
    18:00 +25°C° 0 mm 3 mps 707 mmHg 39%
    19:00 +21°C° 0 mm 3 mps 707 mmHg 50%
    20:00 +19°C° 0 mm 2 mps 707 mmHg 63%
    21:00 +17°C° 0 mm 2 mps 707 mmHg 77%
    22:00 +15°C° 0 mm 2 mps 708 mmHg 90%
    23:00 +15°C° 0 mm 1 mps 707 mmHg 92%
    Show more